Location: B
(0.0000°N, 0.0000°E)
Time: 14:39:09
(UTC+02:00)

Daily predictions for brighter satellites

Satellite Brightness Start Highest point End
(mag) Time Altitude Azimuth Time Altitude Azimuth Time Altitude Azimuth
ATLAS 2A CENTAUR R/B 3.1 20:13:54 10° NW 20:17:37 43° NE 20:29:00 10° ESE
Cosmos 2344 4.5 20:18:34 10° S 20:26:23 30° ESE 20:33:01 10° ENE
SL-27 R/B 3.2 20:28:29 10° NNE 20:31:44 34° E 20:35:01 10° SE
Cosmos 1937 Rocket 3.4 20:28:22 10° S 20:33:32 84° ESE 20:38:39 10° NNE
METEOR-M 4.2 20:30:10 10° SSE 20:35:24 57° ENE 20:40:36 10° N
SWIFT 3.5 20:34:40 10° W 20:38:39 41° NNW 20:42:36 10° NE
Cosmos 2369 Rocket 2.3 20:38:00 10° S 20:43:28 53° ESE 20:48:55 10° NNE
DNEPR-1 R/B 4.5 20:36:41 10° SSW 20:43:42 68° ESE 20:49:24 10° NNE
ALOS 2.9 20:41:37 10° SE 20:45:54 37° ENE 20:50:12 10° NNE
FREGAT/IRIS 4.0 20:44:09 11° SE 20:46:24 21° E 20:48:46 10° NNE
Cosmos 1892 4.0 20:45:36 10° SE 20:48:31 20° E 20:51:25 10° NE
NOAA 12 4.1 20:49:23 10° SSE 20:54:42 68° ENE 20:59:58 10° N
ARIANE 5 R/B 3.8 20:52:11 10° W 20:56:03 71° N 21:09:31 10° E
Delta 198 4.2 20:51:23 10° WNW 20:56:28 50° SSW 20:59:53 16° SE
CENTAUR R/B 2.2 20:50:57 10° SSW 20:56:29 86° WNW 21:02:16 10° NNE
Milstar 3 Cent rocket 3.8 20:57:13 10° WSW 21:00:54 22° SSW 21:05:30 10° SSE
Cosmos 1315 Rocket 3.2 20:57:46 10° SSW 21:01:43 67° W 21:05:41 10° N
BREEZE-M DEB (TANK) 2.7 21:00:55 10° SSW 21:05:45 36° SE 21:06:49 26° E
HJ-1C 4.4 21:06:39 26° E 21:07:16 28° E 21:10:14 10° NNE
Ariane H10+ 3.4 20:52:45 10° W 21:08:19 59° NNW 21:12:21 14° ENE
Cosmos 1470 Rocket 3.8 21:04:19 10° S 21:08:47 76° W 21:13:14 10° N
COSMOS 2455 4.3 21:06:58 10° SW 21:12:30 40° WNW 21:18:03 10° N
GPS 2-14 Rocket1 4.2 21:09:22 10° WSW 21:12:44 26° SSW 21:14:35 19° SSE
ARIANE 5 DEB (SYLDA) 3.1 21:12:12 10° W 21:19:17 77° N 21:20:46 34° ENE
Meteor 2-10 Rocket 4.4 21:14:55 10° NNE 21:19:56 32° E 21:21:08 29° ESE
GOES 2 Rocket 4.1 21:17:01 10° SSW 21:20:20 25° SSE 21:20:20 25° SSE
ASC 2 Rocket 2.8 21:16:25 10° WSW 21:20:36 66° SSE 21:22:04 36° E
CZ-3B DEB 4.1 21:15:23 10° NW 21:24:34 50° WSW 21:33:06 10° SSE
Tsikada Rocket 4.1 21:19:19 10° S 21:25:38 79° W 21:31:51 10° N
FENGYUN 3A 3.8 21:21:24 10° S 21:26:49 74° WSW 21:32:12 10° NNW
SJ-6B 2.5 21:26:02 34° SSE 21:27:35 82° E 21:31:19 10° N
Cosmos 372 Rocket 3.9 21:27:15 10° S 21:32:21 57° ESE 21:37:22 10° NNE
ARIANE 5 DEB (SYLDA) 2.7 21:31:18 10° W 21:33:41 83° N 21:34:49 47° E
Cosmos 923 Rocket 4.2 21:28:35 10° NNW 21:33:51 73° WSW 21:38:01 17° S
Cosmos 1891 Rocket 4.4 21:29:01 10° N 21:35:13 71° E 21:40:10 18° SSE
Meteor 2-3 Rocket 4.1 21:38:53 10° SSW 21:44:36 64° W 21:50:15 10° N
Cosmos 1125 Rocket 3.8 21:45:49 10° SSW 21:51:03 66° WNW 21:56:16 10° N
Delta 128 4.1 21:49:48 10° NW 21:54:23 55° NNE 21:54:23 55° NNE
TSX-5 4.2 21:51:15 10° NNW 21:55:10 61° NW 21:55:10 61° NW
Spelda 2.9 21:52:42 10° W 21:55:52 84° N 21:56:29 69° E
Cosmos 2034 Rocket 3.9 21:50:12 10° N 21:56:21 84° W 21:59:25 32° S
Cosmos 2082 Rocket 2.2 21:52:06 10° NNW 21:57:46 80° WSW 21:59:05 54° S
Cosmos 1943 Rocket 3.1 21:53:26 10° SSW 21:58:49 47° WNW 22:04:09 10° N
Cosmos 2112 Rocket 4.4 21:56:09 10° NNW 22:01:23 60° WSW 22:02:52 43° SSW
Cosmos 1680 Rocket 4.4 21:57:36 10° NNW 22:02:39 46° WSW 22:04:52 29° SSW
Cosmos 1833 Rocket 2.7 21:57:15 10° NNW 22:02:50 74° WSW 22:03:45 60° SSW
Resurs 01 Rocket 3.4 22:25:27 30° NW 22:25:27 30° NW 22:27:57 10° NNW
Intelsat 5-1 Rocket 3.5 22:13:46 10° WSW 22:30:46 87° NNW 22:31:02 85° NE
ARIANE 5 R/B 3.6 22:36:38 10° W 23:14:41 - E 22:39:11 52° W
ARIANE 5 R/B 3.6 22:36:38 10° W 23:14:42 - E 22:39:11 53° W
ARIANE 5 R/B 3.6 22:36:38 10° W 23:14:40 - E 22:39:11 52° W
ARIANE 5 R/B 3.6 22:36:38 10° W 23:14:41 - E 22:39:11 53° W
ARIANE 5 R/B 3.6 22:36:39 10° W 23:14:41 - E 22:39:11 52° W
H-10 deb 3.9 22:36:52 10° W 23:17:34 - E 22:38:53 39° W
